Waarnemingen

Advertentie
Mijn weer
Nice, Frankrijk (7690): temperatuur & dauwpunt: 12.10.2017 14:00:00 - 18.10.2017 14:00:00 (CEST)Nice, Frankrijk (7690): temperatuur 5cm: 12.10.2017 14:00:00 - 18.10.2017 14:00:00 (CEST)Nice, Frankrijk (7690): temperatuur -20cm & temperatuur -100cm: 12.10.2017 14:00:00 - 18.10.2017 14:00:00 (CEST)Nice, Frankrijk (7690): windsnelheid & windstoten: 12.10.2017 14:00:00 - 18.10.2017 14:00:00 (CEST)Nice, Frankrijk (7690): windrichting: 12.10.2017 14:00:00 - 18.10.2017 14:00:00 (CEST)Nice, Frankrijk (7690): luchtdruk: 12.10.2017 14:00:00 - 18.10.2017 14:00:00 (CEST)Nice, Frankrijk (7690): zicht: 12.10.2017 14:00:00 - 18.10.2017 14:00:00 (CEST)Nice, Frankrijk (7690): Zonneschijnduur: 12.10.2017 14:00:00 - 18.10.2017 14:00:00 (CEST)Nice, Frankrijk (7690): neerslag: 12.10.2017 14:00:00 - 18.10.2017 14:00:00 (CEST)
Datum & Tijd tt [°C] td [°C] tt 5cm [°C] tt -20cm [°C] tt -100cm [°C] ff [km/u] ff [kn] fx [km/u] fx [kn] dd ppp [hPa] vv [km] sd [min] rr [mm]
18.10.2017 14:00:00 20,1 14,5 25,7 21,5 22,2 9 5 16 9 OZO 1019,3 30 60 0,0
18.10.2017 13:00:00 20,2 13,9 25,7 21,5 22,2 8 4 13 7 OZO 1020,0 30 60 0,0
18.10.2017 12:00:00 20,1 13,5 24,5 21,5 22,2 4 2 10 5 - 1020,3 10 60 0,0
18.10.2017 11:00:00 19,2 6,0 19,6 21,5 22,2 10 5 22 12 NW 1020,6 30 60 0,0
18.10.2017 10:00:00 16,3 5,3 15,3 21,5 22,1 16 9 25 13 NNW 1020,9 30 58 0,0
18.10.2017 09:00:00 14,2 5,5 13,3 21,6 22,1 16 9 24 13 NNW 1020,6 30 0 0,0
18.10.2017 08:00:00 13,8 5,9 13,0 21,5 22,1 16 8 25 14 NNW 1020,3 30 0 0,0
18.10.2017 07:00:00 13,8 6,6 13,0 21,6 22,3 16 9 25 13 NNW 1020,5 30 0 0,0
18.10.2017 06:00:00 13,9 7,2 13,3 21,5 22,2 16 9 26 14 NNW 1020,9 30 0 0,0
18.10.2017 05:00:00 14,4 7,4 13,9 21,6 22,3 16 9 23 12 NNW 1021,2 30 0 0,0
18.10.2017 04:00:00 14,8 8,1 14,1 21,6 22,2 15 8 20 11 NNW 1021,5 25 0 0,0
18.10.2017 03:00:00 15,2 8,4 14,3 21,5 22,0 16 9 20 11 NNW 1022,0 25 0 0,0
18.10.2017 02:00:00 15,2 9,1 14,2 21,6 22,3 11 6 14 7 NNW 1022,0 20 0 0,0
18.10.2017 01:00:00 15,4 9,5 14,2 21,6 22,1 9 5 11 6 NW 1022,3 20 0 0,0
18.10.2017 00:00:00 15,5 10,0 14,1 21,5 22,1 10 6 16 9 NNW 1022,4 20 0 0,0
17.10.2017 23:00:00 15,4 11,2 14,3 21,6 22,2 12 6 16 8 NW 1022,7 15 0 0,0
17.10.2017 22:00:00 16,6 12,5 15,4 21,6 22,2 9 5 15 8 NNW 1022,6 13 0 0,0
17.10.2017 21:00:00 17,3 14,2 14,2 21,6 22,1 5 3 7 4 NW 1022,6 13 0 0,0
17.10.2017 20:00:00 17,8 15,4 14,6 21,6 22,2 3 2 4 2 WZW 1022,7 13 0 0,0
17.10.2017 19:00:00 18,5 15,0 17,2 21,6 22,1 0 0 5 3 N 1022,6 20 28 0,0
17.10.2017 18:00:00 19,8 14,2 23,2 21,6 22,2 4 2 9 5 Z 1023,1 20 60 0,0
17.10.2017 17:00:00 19,9 14,0 21,5 21,6 22,2 6 3 9 5 Z 1023,4 20 29 0,0
17.10.2017 16:00:00 19,4 14,9 22,6 21,6 22,2 5 3 9 5 Z 1023,6 20 30 0,0
17.10.2017 15:00:00 20,2 15,0 24,6 21,6 22,2 6 3 11 6 Z 1024,0 20 60 0,0
17.10.2017 14:00:00 20,7 13,4 26,2 21,6 22,2 7 4 12 7 ZZO 1024,7 20 60 0,0
17.10.2017 13:00:00 20,0 13,9 24,7 21,6 22,2 9 5 11 6 OZO 1025,2 20 60 0,0
17.10.2017 12:00:00 19,6 14,4 24,4 21,7 22,2 6 4 10 5 O 1025,5 20 60 0,0
17.10.2017 11:00:00 19,8 14,6 23,0 21,7 22,2 6 3 11 6 OZO 1025,8 30 60 0,0
17.10.2017 10:00:00 18,5 7,3 18,3 21,6 22,2 9 5 17 9 NNW 1026,0 10 60 0,0
17.10.2017 09:00:00 16,2 7,4 14,3 21,7 22,2 14 8 22 12 NNW 1025,9 25 43 0,0
17.10.2017 08:00:00 15,1 8,1 13,2 21,7 22,2 15 8 30 16 NW 1025,6 25 0 0,0
17.10.2017 07:00:00 14,5 8,9 13,2 21,7 22,4 10 6 22 12 NNW 1025,6 20 0 0,0
17.10.2017 06:00:00 14,9 9,7 13,7 21,7 22,2 13 7 16 9 NNW 1025,6 20 0 0,0
17.10.2017 05:00:00 15,0 10,6 14,0 21,7 22,1 11 6 15 8 NNW 1025,6 20 0 0,0
17.10.2017 04:00:00 15,1 11,3 13,9 21,7 22,3 11 6 15 8 NNW 1026,0 20 0 0,0
17.10.2017 03:00:00 15,4 12,0 14,1 21,7 22,2 9 5 14 8 NNW 1026,5 20 0 0,0
17.10.2017 02:00:00 15,7 12,8 13,5 21,6 22,1 7 4 10 5 NW 1026,7 20 0 0,0
17.10.2017 01:00:00 15,3 13,0 13,8 21,6 22,3 9 5 13 7 NNW 1026,9 20 0 0,0
17.10.2017 00:00:00 15,7 13,5 14,5 21,6 22,2 9 5 12 6 NW 1027,1 20 0 0,0
16.10.2017 23:00:00 16,5 14,1 15,4 21,6 22,3 10 6 16 9 NNW 1027,3 20 0 0,0
16.10.2017 22:00:00 17,1 14,7 15,5 21,6 22,1 9 5 15 8 NW 1027,3 20 0 0,0
16.10.2017 21:00:00 17,9 15,7 15,0 21,7 22,3 4 2 6 3 NW 1027,3 20 0 0,0
16.10.2017 20:00:00 18,6 16,0 16,3 21,7 22,2 0 0 3 2 N 1027,3 20 0 0,0
16.10.2017 19:00:00 19,1 16,1 18,1 21,7 22,4 0 0 7 4 N 1027,1 20 25 0,0
16.10.2017 18:00:00 19,9 16,1 22,3 21,7 22,2 5 3 10 5 ZZO 1026,9 20 60 0,0
16.10.2017 17:00:00 20,4 16,0 25,9 21,7 22,3 8 4 12 7 Z 1026,9 10 60 0,0
16.10.2017 16:00:00 20,6 16,0 27,6 21,7 22,3 9 5 13 7 Z 1027,0 25 60 0,0
16.10.2017 15:00:00 20,9 16,1 27,7 21,7 22,3 9 5 16 9 Z 1027,3 25 60 0,0
16.10.2017 14:00:00 20,4 16,0 27,0 21,7 22,3 14 8 19 11 Z 1027,8 25 60 0,0
16.10.2017 13:00:00 20,3 15,9 26,9 21,7 22,3 15 8 19 11 Z 1028,3 25 60 0,0
16.10.2017 12:00:00 19,8 13,3 25,3 21,7 22,3 13 7 16 9 Z 1028,4 10 60 0,0
16.10.2017 11:00:00 19,6 13,1 23,1 21,7 22,3 8 4 16 8 W 1028,8 25 60 0,0
16.10.2017 10:00:00 18,0 8,3 18,1 21,7 22,3 13 7 23 12 NNW 1028,8 25 60 0,0
16.10.2017 09:00:00 15,8 8,3 14,5 21,7 22,3 14 8 25 14 NW 1028,5 25 26 0,0
16.10.2017 08:00:00 14,8 8,7 14,5 21,7 22,2 20 11 27 15 NNW 1028,3 25 0 0,0
16.10.2017 07:00:00 15,4 10,0 14,2 21,7 22,4 16 8 21 12 NNW 1028,2 25 0 0,0
16.10.2017 06:00:00 15,1 10,3 14,4 21,7 22,4 15 8 21 11 NNW 1027,9 15 0 0,0
16.10.2017 05:00:00 15,3 11,3 14,6 21,7 22,2 16 8 22 12 NNW 1027,7 15 0 0,0
16.10.2017 04:00:00 15,4 12,0 14,8 21,7 22,3 14 8 19 10 NNW 1027,7 15 0 0,0
16.10.2017 03:00:00 15,9 12,8 15,1 21,7 22,4 16 9 22 12 NNW 1028,2 15 0 0,0
16.10.2017 02:00:00 16,2 13,9 15,5 21,7 22,3 16 9 23 12 NNW 1028,1 15 0 0,0
16.10.2017 01:00:00 17,3 15,1 16,5 21,7 22,4 14 8 19 10 NNW 1028,5 15 0 0,0
16.10.2017 00:00:00 18,3 15,7 17,6 21,7 22,2 8 5 13 7 NNW 1028,8 15 0 0,0
15.10.2017 23:00:00 18,5 15,7 17,4 21,7 22,2 8 4 12 6 N 1028,6 15 0 0,0
15.10.2017 22:00:00 19,1 16,3 17,3 21,6 22,3 6 3 10 5 NW 1028,4 20 0 0,0
15.10.2017 21:00:00 18,8 16,4 17,0 21,7 22,4 4 2 6 4 NNW 1028,2 20 0 0,0
15.10.2017 20:00:00 18,8 16,2 17,2 21,7 22,4 4 2 10 5 ZW 1028,2 20 0 0,0
15.10.2017 19:00:00 19,3 16,7 18,7 21,7 22,4 9 5 14 7 ZZW 1027,7 20 14 0,0
15.10.2017 18:00:00 20,0 16,6 22,1 21,7 22,3 10 5 13 7 ZZW 1027,7 20 60 0,0
15.10.2017 17:00:00 20,5 16,5 25,7 21,7 22,2 10 5 15 8 Z 1027,7 20 60 0,0
15.10.2017 16:00:00 20,7 16,1 27,4 21,7 22,1 12 6 16 9 Z 1027,9 20 60 0,0
15.10.2017 15:00:00 20,7 15,9 27,3 21,7 22,2 13 7 19 10 Z 1028,2 20 60 0,0
15.10.2017 14:00:00 20,4 16,4 27,2 21,7 22,4 14 8 18 10 Z 1028,8 20 60 0,0
15.10.2017 13:00:00 20,2 15,6 27,6 21,7 22,4 12 6 14 8 Z 1029,6 30 60 0,0
15.10.2017 12:00:00 20,2 14,6 27,2 21,7 22,4 7 4 10 5 Z 1029,8 30 60 0,0
15.10.2017 11:00:00 20,1 13,5 23,4 21,7 22,2 4 2 14 8 ZW 1029,8 30 60 0,0
15.10.2017 10:00:00 18,1 9,4 17,5 21,7 22,3 9 5 21 11 NNW 1029,7 30 54 0,0
15.10.2017 09:00:00 15,9 9,1 14,7 21,7 22,3 14 8 29 16 NNW 1029,4 20 47 0,0
15.10.2017 08:00:00 15,0 9,4 14,2 21,7 22,4 18 10 30 16 NW 1028,8 20 0 0,0
15.10.2017 07:00:00 14,8 10,0 14,1 21,7 22,2 21 11 25 14 NNW 1028,7 10 0 0,0
15.10.2017 06:00:00 15,0 10,4 14,4 21,7 22,5 18 10 22 12 NNW 1028,6 20 0 0,0
15.10.2017 05:00:00 14,8 11,0 14,4 21,7 22,4 18 10 23 13 NNW 1028,8 20 0 0,0
15.10.2017 04:00:00 15,8 11,6 15,6 21,7 22,5 18 10 23 12 NNW 1028,7 20 0 0,0
15.10.2017 03:00:00 15,9 12,3 15,5 21,7 22,4 17 9 22 12 NW 1029,1 20 0 0,0
15.10.2017 02:00:00 16,3 12,6 15,5 21,7 22,3 12 7 16 9 NNW 1029,4 20 0 0,0
15.10.2017 01:00:00 16,0 12,9 15,5 21,7 22,4 13 7 15 8 NNW 1029,2 20 0 0,0
15.10.2017 00:00:00 16,5 13,2 15,7 21,7 22,3 11 6 16 8 NNW 1028,9 20 0 0,0
14.10.2017 23:00:00 16,9 13,8 16,0 21,7 22,5 9 5 13 7 NNW 1028,7 20 0 0,0
14.10.2017 22:00:00 17,3 14,2 16,6 21,7 22,3 9 5 15 8 NW 1028,4 20 0 0,0
14.10.2017 21:00:00 18,1 14,8 15,4 21,7 22,4 7 4 10 5 NNW 1028,3 20 0 0,0
14.10.2017 20:00:00 19,5 16,3 17,9 21,7 22,3 3 1 7 4 Z 1028,1 20 0 0,0
14.10.2017 19:00:00 19,9 16,1 18,9 21,7 22,4 6 4 13 7 ZZW 1027,5 30 28 0,0
14.10.2017 18:00:00 20,4 15,6 23,0 21,7 22,3 10 5 16 9 Z 1027,3 30 60 0,0
14.10.2017 17:00:00 20,8 16,0 25,8 21,7 22,5 13 7 15 8 Z 1027,1 30 60 0,0
14.10.2017 16:00:00 21,2 16,2 27,2 21,7 22,4 10 5 15 8 Z 1027,3 30 60 0,0
14.10.2017 15:00:00 21,1 16,3 27,7 21,7 22,5 12 6 18 10 Z 1027,7 30 60 0,0
14.10.2017 14:00:00 21,2 15,9 27,6 21,7 22,6 13 7 16 9 Z 1028,0 30 60 0,0
14.10.2017 13:00:00 21,1 15,4 28,2 21,7 22,4 11 6 13 7 Z 1028,4 30 60 0,0
14.10.2017 12:00:00 21,2 12,3 26,7 21,7 22,3 7 4 10 5 Z 1028,7 30 60 0,0
14.10.2017 11:00:00 20,4 11,1 22,2 21,7 22,5 6 4 14 8 NW 1028,9 25 60 0,0
14.10.2017 10:00:00 18,0 10,6 17,8 21,7 22,3 10 6 24 13 NNW 1028,5 25 60 0,0
14.10.2017 09:00:00 15,9 10,6 14,6 21,7 22,2 15 8 24 13 NNW 1028,1 25 48 0,0
14.10.2017 08:00:00 14,7 10,7 14,3 21,7 22,2 18 10 24 13 NNW 1027,4 10 0 0,0
14.10.2017 07:00:00 14,8 11,0 14,4 21,7 22,5 16 9 23 12 NNW 1027,3 20 0 0,0
14.10.2017 06:00:00 15,0 11,4 14,6 21,7 22,4 15 8 19 10 NNW 1027,4 20 0 0,0
14.10.2017 05:00:00 15,1 11,7 14,6 21,7 22,2 15 8 20 11 NNW 1027,2 10 0 0,0
14.10.2017 04:00:00 15,4 11,8 14,9 21,7 22,2 15 8 21 11 NNW 1027,0 10 0 0,0
14.10.2017 03:00:00 15,6 12,2 14,9 21,7 22,3 15 8 23 12 NNW 1027,1 10 0 0,0
14.10.2017 02:00:00 16,0 12,4 15,4 21,7 22,4 14 8 19 10 NNW 1027,0 20 0 0,0
14.10.2017 01:00:00 16,4 12,4 15,9 21,7 22,4 13 7 18 10 NNW 1026,9 20 0 0,0
14.10.2017 00:00:00 16,9 12,6 16,8 21,7 22,5 13 7 15 8 NNW 1027,1 20 0 0,0
13.10.2017 23:00:00 17,7 13,0 17,5 21,7 22,3 10 5 16 9 NNW 1027,1 20 0 0,0
13.10.2017 22:00:00 18,6 13,7 18,4 21,7 22,3 10 6 14 8 NNW 1027,0 20 0 0,0
13.10.2017 21:00:00 18,8 13,9 17,7 21,7 22,4 6 3 11 6 NW 1026,6 20 0 0,0
13.10.2017 20:00:00 19,2 15,1 17,7 21,7 22,4 3 2 4 2 ZW 1026,5 30 0 0,0
13.10.2017 19:00:00 19,6 14,6 18,8 21,7 22,5 2 1 6 3 ZW 1026,3 40 0 0,0
13.10.2017 18:00:00 19,8 15,2 20,2 21,7 22,3 5 3 10 6 ZZW 1026,4 40 21 0,0
13.10.2017 17:00:00 20,6 15,2 23,8 21,7 22,3 8 4 14 7 Z 1026,2 40 55 0,0
13.10.2017 16:00:00 21,4 14,1 28,3 21,7 22,3 9 5 11 6 Z 1026,3 40 60 0,0
13.10.2017 15:00:00 21,9 14,0 27,2 21,7 22,4 8 4 11 6 ZZO 1026,6 40 60 0,0
13.10.2017 14:00:00 21,1 13,5 26,9 21,7 22,5 8 4 13 7 ZO 1027,0 10 60 0,0
13.10.2017 13:00:00 21,0 14,4 26,1 21,7 22,4 9 5 13 7 ZO 1027,5 40 60 0,0
13.10.2017 12:00:00 20,7 14,3 26,5 21,7 22,5 8 4 10 6 ZO 1027,6 40 60 0,0
13.10.2017 11:00:00 20,5 11,7 22,4 21,7 22,4 9 5 21 11 NW 1027,4 40 60 0,0
13.10.2017 10:00:00 18,1 10,7 18,9 21,7 22,2 16 9 23 13 NNW 1027,1 40 60 0,0
13.10.2017 09:00:00 16,4 10,5 15,9 21,7 22,3 17 9 28 15 NNW 1026,8 40 14 0,0
13.10.2017 08:00:00 16,0 10,7 16,0 21,7 22,5 16 9 24 13 NNW 1026,4 40 0 0,0
13.10.2017 07:00:00 16,4 10,9 16,2 21,7 22,4 14 8 24 13 NNW 1026,2 20 0 0,0
13.10.2017 06:00:00 16,7 11,6 16,6 21,7 22,2 11 6 22 12 NNW 1025,9 20 0 0,0
13.10.2017 05:00:00 16,6 11,9 16,3 21,7 22,5 16 9 21 12 NNW 1026,0 20 0 0,0
13.10.2017 04:00:00 16,6 12,3 16,1 21,7 22,4 13 7 20 11 NNW 1026,1 20 0 0,0
13.10.2017 03:00:00 16,4 12,9 16,1 21,7 22,4 13 7 18 10 NW 1026,3 20 0 0,0
13.10.2017 02:00:00 16,7 13,4 15,8 21,7 22,4 15 8 19 11 NNW 1026,2 20 0 0,0
13.10.2017 01:00:00 16,7 13,6 15,7 21,6 22,4 10 5 13 7 NNW 1026,2 20 0 0,0
13.10.2017 00:00:00 17,1 14,2 15,2 21,6 22,3 5 3 11 6 NNW 1026,1 20 0 0,0
12.10.2017 23:00:00 17,5 14,4 16,5 21,6 22,4 7 4 15 8 NNW 1026,2 30 0 0,0
12.10.2017 22:00:00 18,3 15,2 16,2 21,6 22,3 8 5 13 7 NNW 1026,1 30 0 0,0
12.10.2017 21:00:00 18,7 15,4 15,9 21,6 22,4 0 0 4 2 N 1026,0 40 0 0,0
12.10.2017 20:00:00 19,2 15,5 17,4 21,6 22,4 4 2 8 5 O 1025,9 40 0 0,0
12.10.2017 19:00:00 19,3 15,4 18,5 21,6 22,5 6 3 10 5 OZO 1025,5 40 25 0,0
12.10.2017 18:00:00 20,1 15,9 21,7 21,6 22,5 9 5 13 7 OZO 1025,2 40 60 0,0
12.10.2017 17:00:00 20,2 15,4 22,2 21,6 22,4 9 5 17 9 O 1024,9 40 60 0,0
12.10.2017 16:00:00 20,7 15,3 25,4 21,6 22,4 11 6 14 7 OZO 1024,9 40 60 0,0
12.10.2017 15:00:00 20,8 15,3 26,5 21,6 22,4 8 4 11 6 OZO 1024,8 40 60 0,0
12.10.2017 14:00:00 20,6 15,2 27,0 21,6 22,4 9 5 11 6 ZO 1024,9 10 60 0,0

tt = temperatuur
td = dauwpunt
tt 5cm = temperatuur 5cm
tt -20cm = temperatuur -20cm
tt -100cm = temperatuur -100cm
ff = windsnelheid
fx = windstoten
dd = windrichting
ppp = luchtdruk
vv = zicht
sd = Zonneschijnduur
rr = neerslag

Weerstations in de omgeving